{"data":{"norad_id":60129,"intl_designator":"2024-118S","name":"STARLINK-31845","alt_names":[],"object_type":"PAYLOAD","status":"ACTIVE","operator":null,"country":"US","launch_date":"2024-06-24","launch_site_code":"AFWTR","launch_vehicle":null,"mission":null,"orbit_class":"UNKNOWN","rcs_meters":null,"size_class":null,"mass_kg":null,"dimensions":null,"purposes":["comms"],"wikipedia_slug":null,"has_3d_model":false,"image_url":null,"decayed_at":null,"tle_current":{"epoch":"2026-05-24T22:58:22.580256Z","epoch_age_seconds":78189,"freshness":"FRESH","line1":"1 60129U 24118S   26144.95720579  .00001203  00000+0  52738-4 0  9999","line2":"2 60129  53.1611  30.3026 0001222  81.9151 278.1988 15.30196703107403","mean_motion":15.30196703,"eccentricity":0.0001222,"inclination_deg":53.1611,"raan_deg":30.3026,"arg_perigee_deg":81.9151,"mean_anomaly_deg":278.1988,"bstar":5.2738e-5,"rev_number":10740,"period_min":94.10554846817,"perigee_km":474.38743285886,"apogee_km":476.06239451056,"semimajor_km":6853.3619136847,"source":"CELESTRAK","updated_at":"2026-05-25T13:38:19.168878Z"}}}